TimeEDT,TemperatureF,Dew PointF,Humidity,Sea Level PressureIn,VisibilityMPH,Wind Direction,Wind SpeedMPH,Gust SpeedMPH,PrecipitationIn,Events,Conditions,WindDirDegrees,DateUTC
12:54 AM,55.0,53.1,93,30.17,10.0,Calm,Calm,-,N/A,,Mostly Cloudy,0,2013-04-17 04:54:00
1:29 AM,53.6,51.8,94,30.17,0.8,NNW,4.6,-,N/A,,Mostly Cloudy,340,2013-04-17 05:29:00
1:37 AM,53.6,51.8,94,30.17,0.2,Calm,Calm,-,N/A,Fog,Fog,0,2013-04-17 05:37:00
1:50 AM,53.6,53.6,100,30.16,0.5,Calm,Calm,-,N/A,Fog,Fog,0,2013-04-17 05:50:00
1:54 AM,53.1,53.1,100,30.17,1.5,Calm,Calm,-,N/A,,Overcast,0,2013-04-17 05:54:00
1:56 AM,53.6,53.6,100,30.17,5.0,NNW,4.6,-,N/A,,Overcast,340,2013-04-17 05:56:00
2:04 AM,53.6,51.8,94,30.17,1.8,North,3.5,-,N/A,,Overcast,350,2013-04-17 06:04:00
2:19 AM,53.6,51.8,94,30.17,4.0,NNW,3.5,-,N/A,,Overcast,340,2013-04-17 06:19:00
2:54 AM,51.1,50.0,96,30.16,10.0,North,8.1,-,N/A,,Overcast,350,2013-04-17 06:54:00
3:27 AM,50.0,48.2,94,30.17,10.0,NNE,4.6,-,N/A,,Overcast,20,2013-04-17 07:27:00
3:43 AM,50.0,48.2,94,30.17,10.0,NNE,4.6,-,N/A,,Overcast,30,2013-04-17 07:43:00
3:54 AM,50.0,48.0,93,30.17,10.0,NNE,4.6,-,N/A,,Overcast,20,2013-04-17 07:54:00
4:54 AM,50.0,45.0,83,30.19,10.0,North,6.9,-,N/A,,Overcast,360,2013-04-17 08:54:00
5:54 AM,48.9,44.1,83,30.21,10.0,North,6.9,-,N/A,,Overcast,350,2013-04-17 09:54:00
6:54 AM,48.9,43.0,80,30.23,10.0,NE,5.8,-,N/A,,Overcast,40,2013-04-17 10:54:00
7:54 AM,50.0,44.1,80,30.25,10.0,NNE,5.8,-,N/A,,Overcast,30,2013-04-17 11:54:00
8:44 AM,51.8,42.8,71,30.27,10.0,NE,6.9,-,N/A,,Partly Cloudy,50,2013-04-17 12:44:00
8:54 AM,51.1,43.0,74,30.27,10.0,NE,6.9,-,N/A,,Partly Cloudy,50,2013-04-17 12:54:00
10:54 AM,57.9,41.0,53,30.26,10.0,Variable,4.6,-,N/A,,Clear,0,2013-04-17 14:54:00
11:54 AM,60.1,39.0,46,30.25,10.0,Variable,5.8,-,N/A,,Clear,0,2013-04-17 15:54:00
12:54 PM,63.0,37.9,40,30.24,10.0,Calm,Calm,-,N/A,,Clear,0,2013-04-17 16:54:00
1:54 PM,66.0,37.0,34,30.21,10.0,Variable,6.9,-,N/A,,Clear,0,2013-04-17 17:54:00
2:54 PM,68.0,33.1,27,30.21,10.0,Variable,3.5,-,N/A,,Clear,0,2013-04-17 18:54:00
3:54 PM,70.0,34.0,27,30.19,10.0,Variable,4.6,-,N/A,,Clear,0,2013-04-17 19:54:00
4:54 PM,70.0,35.1,28,30.18,10.0,Variable,3.5,-,N/A,,Clear,0,2013-04-17 20:54:00
5:54 PM,70.0,34.0,27,30.18,10.0,Calm,Calm,-,N/A,,Clear,0,2013-04-17 21:54:00
6:54 PM,69.1,36.0,30,30.17,10.0,East,3.5,-,N/A,,Clear,100,2013-04-17 22:54:00
7:54 PM,64.0,39.9,41,30.18,10.0,ESE,6.9,-,N/A,,Clear,120,2013-04-17 23:54:00
8:54 PM,60.1,37.9,44,30.20,10.0,East,5.8,-,N/A,,Clear,80,2013-04-18 00:54:00
9:54 PM,59.0,34.0,39,30.22,10.0,ENE,8.1,-,N/A,,Clear,70,2013-04-18 01:54:00
10:54 PM,53.1,34.0,48,30.22,10.0,East,5.8,-,N/A,,Mostly Cloudy,80,2013-04-18 02:54:00
11:54 PM,57.0,34.0,42,30.19,10.0,NNE,4.6,-,N/A,,Overcast,20,2013-04-18 03:54:00